TimeEDT,TemperatureF,Dew PointF,Humidity,Sea Level PressureIn,VisibilityMPH,Wind Direction,Wind SpeedMPH,Gust SpeedMPH,PrecipitationIn,Events,Conditions,WindDirDegrees,DateUTC
12:53 AM,48.0,44.1,86,30.06,9.0,SSE,5.8,-,N/A,,Clear,150,2013-04-09 04:53:00
1:53 AM,48.9,46.0,90,30.02,9.0,SSE,6.9,-,N/A,,Mostly Cloudy,150,2013-04-09 05:53:00
2:53 AM,48.9,46.0,90,30.00,9.0,SSE,6.9,-,N/A,,Clear,150,2013-04-09 06:53:00
3:53 AM,48.9,46.0,90,29.98,9.0,South,4.6,-,0.00,Rain,Light Rain,170,2013-04-09 07:53:00
4:53 AM,48.0,46.0,93,29.96,7.0,Variable,3.5,-,0.00,,Partly Cloudy,0,2013-04-09 08:53:00
5:53 AM,48.9,46.0,90,29.96,8.0,SSW,8.1,-,N/A,,Mostly Cloudy,210,2013-04-09 09:53:00
6:53 AM,48.9,46.0,90,29.96,6.0,SW,9.2,-,N/A,,Partly Cloudy,220,2013-04-09 10:53:00
7:53 AM,51.1,46.9,86,29.97,7.0,SW,9.2,-,N/A,,Partly Cloudy,230,2013-04-09 11:53:00
8:53 AM,54.0,48.0,80,29.96,8.0,Variable,6.9,-,N/A,,Clear,0,2013-04-09 12:53:00
9:53 AM,59.0,48.0,67,29.95,10.0,SW,8.1,-,N/A,,Clear,220,2013-04-09 13:53:00
10:53 AM,62.1,48.0,60,29.95,10.0,SW,5.8,-,N/A,,Clear,230,2013-04-09 14:53:00
11:53 AM,71.1,48.0,44,29.94,10.0,SW,6.9,-,N/A,,Clear,230,2013-04-09 15:53:00
12:53 PM,80.1,45.0,29,29.92,10.0,West,19.6,31.1,N/A,,Clear,270,2013-04-09 16:53:00
1:53 PM,81.0,42.1,25,29.92,10.0,West,20.7,27.6,N/A,,Clear,270,2013-04-09 17:53:00
2:53 PM,82.0,41.0,23,29.92,10.0,WNW,16.1,28.8,N/A,,Clear,300,2013-04-09 18:53:00
3:53 PM,80.1,37.9,22,29.92,10.0,NW,18.4,29.9,N/A,,Clear,310,2013-04-09 19:53:00
4:53 PM,79.0,36.0,21,29.93,10.0,NW,13.8,24.2,N/A,,Clear,320,2013-04-09 20:53:00
5:53 PM,77.0,35.1,22,29.95,10.0,NW,13.8,-,N/A,,Clear,310,2013-04-09 21:53:00
6:53 PM,73.9,36.0,25,29.97,10.0,NW,5.8,-,N/A,,Clear,320,2013-04-09 22:53:00
7:53 PM,57.9,39.9,51,29.98,10.0,SSE,4.6,-,N/A,,Clear,160,2013-04-09 23:53:00
8:53 PM,52.0,39.0,61,30.00,10.0,Calm,Calm,-,N/A,,Clear,0,2013-04-10 00:53:00
9:53 PM,51.1,41.0,68,30.01,10.0,SSE,4.6,-,N/A,,Clear,150,2013-04-10 01:53:00
10:53 PM,46.0,37.9,73,30.00,10.0,Calm,Calm,-,N/A,,Clear,0,2013-04-10 02:53:00
11:53 PM,48.0,39.0,71,29.94,10.0,Calm,Calm,-,N/A,,Clear,0,2013-04-10 03:53:00